Total_Precipitation_Accumulation
0.02 0.05 0.23 0.28 0.27 0.27 0.30 0.30 0.28 0.26 0.29 0.32 0.34 0.34 0.32 0.31 0.30 0.30 0.30 0.29 0.30 0.32 0.38 0.43 0.47 0.46 0.41 0.38 0.39 0.38 0.35 0.33 0.28 0.23 0.24 0.27 0.26 0.23 0.19 0.18 0.17 0.25 0.33
0.02 0.06 0.19 0.23 0.25 0.28 0.31 0.28 0.25 0.23 0.26 0.29 0.30 0.31 0.30 0.29 0.29 0.30 0.30 0.30 0.32 0.34 0.38 0.42 0.42 0.40 0.37 0.37 0.43 0.41 0.34 0.24 0.19 0.16 0.15 0.16 0.22 0.25 0.24 0.24 0.22 0.31 0.31
0.02 0.05 0.14 0.21 0.24 0.30 0.31 0.27 0.24 0.22 0.23 0.26 0.29 0.32 0.31 0.30 0.29 0.29 0.30 0.32 0.38 0.42 0.42 0.43 0.41 0.37 0.37 0.41 0.40 0.40 0.35 0.24 0.14 0.13 0.11 0.17 0.25 0.30 0.30 0.26 0.25 0.28 0.28
0.01 0.03 0.08 0.19 0.24 0.30 0.32 0.30 0.27 0.25 0.25 0.26 0.27 0.29 0.32 0.34 0.33 0.31 0.30 0.36 0.42 0.48 0.53 0.48 0.41 0.42 0.43 0.43 0.35 0.33 0.35 0.29 0.16 0.10 0.07 0.17 0.34 0.43 0.36 0.32 0.27 0.27 0.29
0.01 0.03 0.09 0.19 0.25 0.30 0.33 0.35 0.35 0.33 0.31 0.30 0.29 0.28 0.29 0.31 0.32 0.32 0.33 0.37 0.42 0.45 0.49 0.49 0.45 0.45 0.43 0.39 0.32 0.30 0.40 0.40 0.24 0.07 0.07 0.10 0.27 0.57 0.39 0.35 0.31 0.28 0.27
0.01 0.03 0.09 0.20 0.28 0.32 0.35 0.40 0.41 0.41 0.41 0.40 0.37 0.35 0.34 0.34 0.33 0.31 0.34 0.34 0.33 0.36 0.40 0.42 0.42 0.44 0.44 0.41 0.33 0.34 0.46 0.52 0.26 0.10 0.11 0.13 0.27 0.53 0.42 0.38 0.34 0.30 0.28
0.02 0.04 0.10 0.23 0.32 0.35 0.37 0.41 0.44 0.46 0.49 0.50 0.50 0.48 0.45 0.41 0.38 0.36 0.37 0.34 0.29 0.30 0.34 0.37 0.39 0.41 0.44 0.43 0.39 0.46 0.56 0.54 0.27 0.25 0.17 0.15 0.29 0.50 0.50 0.44 0.39 0.34 0.31
0.02 0.06 0.13 0.29 0.36 0.38 0.39 0.44 0.47 0.49 0.54 0.56 0.55 0.54 0.51 0.46 0.44 0.45 0.45 0.40 0.34 0.29 0.28 0.29 0.31 0.36 0.38 0.37 0.41 0.51 0.55 0.37 0.15 0.12 0.10 0.12 0.28 0.51 0.71 0.64 0.49 0.40 0.36
0.05 0.08 0.15 0.28 0.38 0.43 0.45 0.47 0.49 0.53 0.56 0.58 0.59 0.59 0.56 0.48 0.47 0.48 0.48 0.43 0.38 0.35 0.31 0.27 0.26 0.27 0.27 0.29 0.35 0.37 0.33 0.23 0.12 0.16 0.12 0.17 0.29 0.59 0.88 0.83 0.63 0.47 0.41
0.09 0.13 0.18 0.28 0.37 0.42 0.47 0.52 0.51 0.54 0.57 0.58 0.60 0.61 0.56 0.49 0.47 0.46 0.43 0.40 0.38 0.39 0.36 0.29 0.27 0.26 0.22 0.21 0.22 0.23 0.19 0.16 0.10 0.15 0.21 0.22 0.25 0.57 0.93 0.92 0.78 0.61 0.51
0.17 0.20 0.24 0.33 0.41 0.45 0.47 0.51 0.55 0.57 0.58 0.58 0.58 0.57 0.57 0.52 0.49 0.46 0.43 0.39 0.38 0.38 0.35 0.32 0.29 0.26 0.21 0.17 0.15 0.15 0.12 0.08 0.11 0.18 0.21 0.19 0.26 0.58 0.93 0.98 0.88 0.74 0.65
0.20 0.24 0.28 0.36 0.43 0.49 0.50 0.54 0.58 0.55 0.54 0.52 0.49 0.48 0.50 0.50 0.47 0.43 0.42 0.42 0.42 0.41 0.38 0.37 0.33 0.27 0.23 0.18 0.19 0.18 0.10 0.07 0.12 0.13 0.13 0.14 0.29 0.59 0.90 1.00 0.97 0.86 0.81
0.20 0.25 0.31 0.38 0.47 0.52 0.53 0.54 0.56 0.52 0.51 0.52 0.50 0.52 0.56 0.56 0.52 0.51 0.48 0.46 0.45 0.44 0.47 0.49 0.48 0.39 0.36 0.34 0.33 0.26 0.17 0.14 0.11 0.11 0.10 0.12 0.22 0.45 0.75 0.95 1.04 1.03 1.01
0.25 0.27 0.32 0.42 0.52 0.55 0.56 0.56 0.54 0.50 0.47 0.48 0.48 0.52 0.58 0.59 0.53 0.50 0.50 0.46 0.44 0.44 0.46 0.50 0.51 0.46 0.42 0.36 0.35 0.32 0.28 0.23 0.16 0.13 0.11 0.12 0.14 0.23 0.42 0.66 0.89 1.05 1.12
0.24 0.29 0.33 0.40 0.50 0.57 0.62 0.62 0.59 0.52 0.46 0.44 0.44 0.45 0.46 0.49 0.49 0.44 0.39 0.37 0.37 0.37 0.38 0.39 0.40 0.42 0.42 0.38 0.34 0.32 0.31 0.28 0.23 0.19 0.16 0.15 0.13 0.15 0.23 0.38 0.60 0.91 1.11
0.24 0.28 0.34 0.41 0.49 0.60 0.62 0.66 0.64 0.60 0.53 0.49 0.45 0.42 0.42 0.42 0.42 0.39 0.35 0.30 0.27 0.27 0.27 0.27 0.25 0.25 0.28 0.32 0.31 0.29 0.27 0.26 0.27 0.27 0.25 0.24 0.17 0.15 0.19 0.29 0.43 0.65 0.96
0.23 0.31 0.36 0.43 0.51 0.60 0.65 0.68 0.71 0.70 0.68 0.60 0.51 0.46 0.42 0.42 0.42 0.41 0.37 0.32 0.27 0.25 0.26 0.25 0.22 0.20 0.21 0.23 0.25 0.25 0.22 0.22 0.25 0.30 0.31 0.30 0.26 0.21 0.20 0.26 0.35 0.49 0.73
0.25 0.33 0.40 0.44 0.54 0.60 0.69 0.73 0.72 0.76 0.73 0.68 0.61 0.56 0.49 0.44 0.43 0.45 0.43 0.38 0.33 0.30 0.30 0.31 0.28 0.25 0.23 0.22 0.24 0.28 0.26 0.24 0.25 0.29 0.33 0.31 0.30 0.27 0.23 0.23 0.31 0.44 0.61
0.27 0.33 0.41 0.44 0.51 0.60 0.70 0.81 0.84 0.82 0.79 0.73 0.67 0.64 0.59 0.54 0.46 0.44 0.46 0.44 0.41 0.39 0.36 0.35 0.33 0.31 0.29 0.29 0.30 0.31 0.32 0.29 0.27 0.29 0.32 0.36 0.37 0.33 0.33 0.26 0.26 0.36 0.51
0.28 0.35 0.42 0.47 0.53 0.65 0.79 0.87 0.96 0.93 0.84 0.78 0.75 0.71 0.69 0.65 0.57 0.50 0.46 0.47 0.47 0.45 0.43 0.39 0.38 0.38 0.36 0.33 0.33 0.33 0.34 0.36 0.36 0.33 0.37 0.46 0.46 0.39 0.37 0.37 0.32 0.27 0.32
0.30 0.38 0.44 0.48 0.57 0.70 0.81 0.87 0.86 0.91 0.87 0.77 0.71 0.74 0.75 0.73 0.67 0.61 0.54 0.48 0.50 0.49 0.45 0.41 0.38 0.38 0.37 0.35 0.37 0.36 0.35 0.34 0.32 0.29 0.33 0.45 0.57 0.59 0.53 0.52 0.51 0.43 0.34
0.29 0.36 0.44 0.47 0.52 0.60 0.63 0.71 0.77 0.78 0.80 0.80 0.73 0.71 0.75 0.76 0.71 0.67 0.63 0.54 0.47 0.46 0.44 0.42 0.38 0.37 0.35 0.31 0.33 0.38 0.34 0.33 0.33 0.27 0.22 0.29 0.39 0.48 0.51 0.54 0.58 0.60 0.52
0.27 0.34 0.40 0.47 0.49 0.56 0.63 0.75 0.84 0.89 0.89 0.87 0.82 0.75 0.73 0.74 0.73 0.67 0.62 0.58 0.52 0.47 0.43 0.41 0.39 0.38 0.37 0.33 0.31 0.45 0.50 0.36 0.25 0.17 0.17 0.20 0.22 0.25 0.29 0.36 0.44 0.49 0.56
0.25 0.34 0.39 0.48 0.56 0.56 0.65 0.76 0.76 0.77 0.77 0.70 0.70 0.70 0.74 0.76 0.75 0.71 0.65 0.60 0.55 0.51 0.46 0.40 0.39 0.37 0.39 0.40 0.36 0.34 0.39 0.38 0.41 0.25 0.11 0.10 0.10 0.10 0.11 0.15 0.24 0.31 0.40
0.27 0.34 0.41 0.47 0.59 0.62 0.64 0.71 0.70 0.67 0.66 0.67 0.71 0.74 0.75 0.78 0.80 0.74 0.68 0.63 0.56 0.50 0.48 0.46 0.42 0.42 0.43 0.43 0.42 0.38 0.35 0.31 0.32 0.41 0.25 0.12 0.12 0.11 0.10 0.10 0.12 0.17 0.25
0.27 0.35 0.39 0.47 0.58 0.66 0.66 0.71 0.71 0.68 0.66 0.71 0.75 0.81 0.82 0.83 0.86 0.82 0.71 0.66 0.61 0.51 0.46 0.47 0.46 0.44 0.44 0.43 0.41 0.42 0.45 0.46 0.37 0.39 0.35 0.18 0.15 0.13 0.13 0.12 0.11 0.11 0.17